Theta_e
321 320 321 321 320 321 322 322 323 323 322 322 322 322 321 322 321 321 320 320 322 322 319 318 318 317 318 320 321 322 318 309 308 310 311 315 319 324 317 310 310 308 311 314 314 313 311 312 312 314 317 316 316 317 317 315 316 319 321 318 316 318 318 318 318 316 315 316 314 311 313 317 316 311 310 310 312 313 312 313 313 314 318 321 321 321 324 330
320 320 320 320 320 321 321 322 322 322 322 322 321 321 321 321 320 320 319 319 320 319 319 321 320 319 319 318 315 315 311 307 309 310 315 318 316 318 314 308 310 309 312 313 313 313 311 311 312 314 316 316 315 316 318 316 316 319 320 317 317 320 318 316 316 314 315 315 313 312 312 314 315 313 311 313 314 313 313 315 313 314 317 321 322 322 326 330
320 320 320 320 319 320 321 321 322 321 322 321 321 321 320 320 320 319 319 318 319 318 317 318 320 317 314 310 308 308 307 307 308 309 317 319 313 312 310 308 309 309 312 313 313 313 311 311 312 314 315 314 315 315 317 317 316 317 318 318 319 320 316 313 314 313 312 312 313 312 310 312 312 311 312 314 315 313 314 315 314 314 314 320 324 324 328 331
320 320 320 320 319 320 320 320 321 321 321 321 320 320 319 320 319 319 319 318 320 319 315 314 314 311 309 306 306 307 306 309 309 310 314 316 314 310 308 309 310 310 313 312 312 312 311 311 312 314 315 314 314 315 317 316 316 316 316 318 318 318 316 313 311 310 309 310 313 312 310 312 310 310 312 314 315 314 315 315 315 316 314 319 325 325 329 331
319 319 319 319 320 319 319 320 321 321 321 320 320 320 319 320 319 319 318 318 319 318 316 315 311 308 307 306 307 306 309 317 314 311 311 312 313 310 309 310 310 312 313 312 312 311 310 311 313 314 314 314 315 316 316 313 313 316 314 315 316 316 316 312 308 309 308 309 311 311 312 313 310 310 312 314 314 315 315 313 314 314 312 319 325 326 329 331
319 319 319 319 319 319 318 319 320 320 320 320 319 319 319 319 319 319 318 318 318 318 316 313 308 307 307 306 308 307 312 320 313 310 313 311 309 309 310 309 310 313 314 312 310 310 310 311 313 314 314 314 315 316 314 311 311 316 314 311 311 312 314 310 307 309 307 310 311 311 312 311 311 312 310 312 315 314 311 309 310 309 311 321 326 326 329 330
319 319 319 319 318 319 318 319 320 320 320 319 319 319 319 319 318 318 317 317 317 317 314 310 307 307 307 308 309 309 311 314 310 311 314 313 310 309 309 308 312 313 313 311 309 310 310 311 313 313 313 314 315 314 313 311 311 315 315 311 310 309 311 308 307 307 306 310 311 309 310 310 313 313 308 310 314 312 308 307 308 309 314 323 326 326 329 331
319 319 319 317 317 318 319 319 320 320 319 319 318 319 319 318 318 316 316 317 317 316 314 310 308 307 308 309 310 309 310 310 312 314 314 314 312 310 310 311 314 313 311 311 309 311 310 312 312 312 313 313 313 313 311 312 313 315 314 311 309 308 308 305 305 306 306 308 307 308 311 311 310 310 308 311 313 311 307 307 312 316 320 323 324 326 330 331
319 319 318 317 317 319 319 319 319 319 319 319 319 318 318 317 316 316 316 316 316 315 313 310 308 308 308 309 310 309 309 310 311 312 314 315 313 312 313 314 316 312 311 310 309 311 310 312 312 311 312 311 311 312 311 314 314 314 312 310 309 308 307 306 306 306 307 307 307 310 312 310 307 307 311 313 311 308 306 309 315 319 322 323 323 326 329 330
319 318 318 318 318 319 319 319 318 317 318 319 318 317 317 317 316 315 315 316 315 314 311 310 309 309 308 308 309 308 310 312 310 311 313 314 313 313 314 315 315 312 310 310 309 311 311 312 312 310 312 310 310 311 311 313 313 311 310 310 309 309 307 308 309 307 308 308 308 312 312 309 307 308 313 313 307 306 308 312 316 318 319 322 324 325 328 329
318 318 319 318 318 318 318 317 316 317 319 318 317 317 316 316 315 315 315 315 316 314 311 309 308 309 308 307 308 307 311 314 311 311 313 313 313 313 313 312 312 312 311 310 309 311 311 311 310 309 311 311 310 310 310 310 310 310 310 311 309 309 309 309 310 308 309 310 308 311 311 310 308 310 314 311 305 306 309 312 315 317 317 320 323 324 326 328
318 318 319 318 317 317 316 316 316 317 318 317 316 316 315 315 314 314 315 315 315 313 309 308 308 308 308 307 307 308 311 314 314 313 313 313 312 311 312 311 311 312 311 310 310 310 311 310 310 310 310 311 311 311 310 308 308 310 311 313 311 311 312 309 310 309 310 311 308 310 311 311 311 312 313 308 304 306 308 310 312 315 317 318 320 322 324 326
318 318 318 317 316 315 315 316 316 317 317 316 315 315 315 314 314 314 314 314 315 312 308 308 308 308 308 307 307 307 311 315 314 313 312 312 311 311 311 311 311 311 312 311 311 310 310 310 310 310 310 311 311 310 310 307 309 310 311 313 312 312 313 310 309 309 310 310 307 309 309 312 314 313 310 306 305 307 309 311 311 312 314 314 316 318 321 325
318 318 317 316 314 314 315 316 316 316 315 314 315 315 314 313 313 314 314 314 314 311 308 308 308 308 308 307 308 308 312 315 314 312 311 311 311 311 312 311 311 312 311 311 311 311 310 309 310 310 309 310 310 308 310 309 310 312 311 313 313 312 312 310 309 310 311 309 307 309 309 311 313 311 308 305 306 309 310 312 311 310 310 311 312 314 317 321
317 317 316 315 314 314 315 316 316 314 313 314 314 314 313 313 313 313 313 314 313 310 308 309 309 308 307 307 308 310 313 314 313 312 311 311 312 313 313 312 312 313 312 311 311 311 310 310 311 311 309 308 309 310 312 311 310 311 310 312 313 312 311 311 309 309 312 310 308 309 309 311 313 310 306 305 307 309 311 312 312 311 310 309 310 310 312 315
317 316 315 314 314 314 315 315 314 313 313 314 313 313 313 313 313 313 314 314 313 310 309 311 310 308 306 307 310 312 313 313 313 312 311 311 312 313 313 312 313 312 311 310 310 309 310 311 311 311 310 309 311 313 312 312 312 311 311 313 313 311 311 311 309 308 310 311 310 310 310 311 312 311 307 305 307 309 310 312 312 312 312 310 310 310 310 311
316 315 314 314 313 314 314 314 313 313 314 313 313 312 312 313 313 313 314 313 313 310 311 312 310 307 306 307 310 313 313 312 313 312 311 312 312 312 312 312 312 311 310 310 310 311 311 310 309 310 311 310 312 313 312 311 312 312 312 313 313 311 309 310 311 309 308 311 312 311 311 311 312 312 309 307 307 308 310 312 313 313 312 312 311 311 310 311
315 315 314 314 313 314 314 313 313 313 313 313 312 312 312 313 313 314 314 313 311 309 310 311 308 307 306 307 310 312 312 312 312 312 311 312 311 312 312 311 311 311 311 311 310 311 311 311 311 312 312 311 312 313 312 311 312 312 312 312 311 311 310 310 311 310 308 311 312 312 311 311 312 312 311 310 308 309 311 312 312 312 312 312 312 312 311 311
315 315 314 314 314 314 313 312 312 313 312 311 312 312 313 313 313 314 313 311 309 308 309 309 307 307 307 307 310 312 312 312 312 312 311 311 311 311 312 311 312 313 312 313 312 312 313 312 312 313 313 312 312 313 312 313 314 313 313 313 312 311 310 310 310 308 308 312 312 312 312 312 313 312 313 312 309 309 311 311 311 311 312 313 312 312 313 312
315 314 314 314 314 314 312 312 312 312 311 311 313 313 313 313 311 312 311 309 308 306 308 309 307 307 308 309 312 311 311 312 312 311 311 311 311 311 311 311 314 314 312 314 314 311 312 314 314 314 313 313 313 312 312 312 313 313 313 313 314 313 310 310 310 307 307 312 313 313 313 312 313 313 313 313 311 310 311 311 312 313 313 314 315 314 314 314
314 314 314 314 314 313 312 312 312 311 311 312 313 311 310 310 310 311 310 308 307 306 308 309 308 308 309 310 311 310 311 312 311 312 311 311 311 312 311 311 313 312 312 315 313 310 311 314 315 314 313 313 312 311 311 311 311 313 312 312 312 313 311 309 310 308 306 310 313 311 311 313 313 313 313 313 312 312 312 313 313 314 314 314 315 315 315 314
314 314 314 313 313 312 311 311 311 311 311 313 313 310 309 309 309 310 309 308 307 306 307 308 308 310 310 310 310 309 312 312 312 313 312 311 312 311 311 311 312 312 312 313 312 312 313 315 315 312 310 310 309 309 310 312 312 313 313 312 311 312 311 309 309 308 306 310 313 311 311 313 314 314 314 314 313 313 314 313 313 313 314 313 314 314 314 313
314 313 313 313 312 311 311 310 310 311 312 313 312 310 310 308 307 309 308 309 308 306 308 308 309 311 311 311 310 310 311 312 312 313 312 311 311 312 312 311 312 312 312 311 313 314 314 313 311 308 307 309 309 308 311 312 312 314 314 312 312 313 312 310 311 309 306 308 310 312 312 314 314 313 313 312 310 311 310 308 309 309 311 312 313 313 311 310
313 313 313 313 312 311 310 310 311 311 312 313 312 309 309 308 308 308 308 309 308 307 308 307 310 314 312 311 311 310 310 311 312 312 311 311 311 312 312 311 311 312 311 311 312 314 313 309 305 306 308 311 311 309 312 312 311 315 316 314 314 314 313 312 311 309 307 307 308 311 312 313 315 313 313 311 307 307 306 306 307 308 308 308 308 308 308 308
313 313 312 312 311 311 310 311 311 311 312 312 311 309 309 309 307 307 308 308 309 308 307 308 311 314 312 310 311 311 310 311 312 312 311 310 311 311 310 310 311 311 311 311 311 313 312 305 303 308 309 312 313 311 314 314 312 314 315 315 315 313 313 313 312 311 311 311 309 310 309 310 313 314 313 312 309 309 308 308 309 309 308 308 308 309 309 308
313 312 312 311 310 311 310 311 311 311 312 311 310 309 310 309 307 308 308 308 309 308 307 308 309 310 311 311 311 311 311 311 310 310 310 310 310 309 310 310 309 310 311 310 311 312 308 303 306 311 311 314 314 311 315 316 312 312 314 315 315 314 317 316 315 314 312 311 310 309 310 309 312 313 314 312 312 312 311 311 311 310 310 311 311 312 311 310
313 312 311 310 310 311 311 311 310 310 312 311 309 309 309 309 308 307 307 308 309 309 308 307 306 309 311 311 310 310 311 312 310 310 310 310 309 308 310 310 308 309 309 310 312 310 306 305 308 312 313 314 313 312 316 315 312 313 314 315 315 316 320 319 316 314 312 311 311 311 313 310 309 312 314 311 311 312 312 311 312 312 312 312 311 312 311 311
312 311 311 310 310 311 310 310 310 310 311 310 309 310 310 309 307 306 307 309 309 309 308 306 305 309 311 309 309 310 310 312 313 312 309 308 308 309 310 311 311 311 309 310 312 310 308 310 310 312 313 313 314 316 316 314 314 315 311 312 315 315 319 318 315 313 311 311 311 313 313 310 309 313 314 309 310 312 312 312 313 313 312 311 311 311 310 310
312 311 311 310 310 310 309 309 310 310 309 308 309 310 309 308 307 307 309 309 309 308 307 307 308 310 310 308 309 309 309 312 314 312 308 307 307 308 309 310 310 310 309 311 314 311 310 310 310 311 313 314 314 311 311 315 315 312 308 311 313 314 315 315 314 312 310 311 312 313 311 309 309 314 314 310 310 312 312 312 313 312 311 310 310 309 309 310
312 312 310 310 310 310 309 309 309 309 308 308 310 310 308 307 307 307 308 309 310 308 305 307 309 310 310 308 309 310 310 312 311 311 310 309 308 307 307 308 309 312 313 315 315 312 309 307 310 312 312 311 308 305 308 314 313 309 311 313 313 313 313 312 311 310 310 312 311 309 308 308 308 312 315 312 310 311 312 312 312 312 311 311 309 308 308 308
312 311 310 309 310 309 310 310 308 308 308 309 310 309 308 309 308 308 308 310 311 308 305 307 309 311 310 310 311 310 311 311 311 311 311 309 309 308 309 309 311 313 315 315 314 312 310 309 311 311 308 308 309 308 306 308 308 310 315 314 313 313 312 312 310 310 312 312 308 305 305 308 308 310 313 311 310 309 311 313 312 312 312 311 310 308 307 307
312 311 310 309 309 309 310 310 308 308 309 310 310 308 308 309 308 308 308 309 310 309 308 308 308 310 311 311 312 311 312 312 311 312 312 311 310 310 311 312 312 313 312 311 314 314 314 312 311 310 307 308 313 312 307 307 309 311 314 313 313 313 312 313 313 312 313 311 305 304 305 308 309 310 310 310 309 308 310 313 313 312 312 311 311 310 308 308
312 311 310 310 310 309 310 311 307 308 310 310 309 309 310 309 308 310 308 307 310 310 309 310 309 311 311 311 312 312 314 314 312 312 313 313 312 312 314 314 314 316 315 313 314 314 314 315 313 312 310 310 314 313 310 310 310 311 314 313 313 314 313 314 312 310 310 308 304 304 306 309 310 310 311 310 310 309 309 310 312 311 310 309 309 310 310 309
311 311 310 311 311 309 311 310 307 308 310 309 308 309 311 309 309 311 309 307 310 308 309 311 310 311 311 311 312 312 313 313 312 313 313 313 312 312 313 312 313 318 317 314 314 314 314 314 314 314 313 311 313 313 314 314 312 313 317 314 312 313 313 313 311 310 310 309 305 304 307 311 310 309 310 309 309 309 307 306 307 307 306 306 308 308 309 310
312 311 311 311 311 310 311 310 307 309 309 308 308 309 310 310 310 311 309 308 310 309 309 311 312 312 312 312 312 312 312 313 312 313 313 313 312 312 312 310 312 315 315 313 312 313 313 312 312 312 311 311 313 314 315 315 312 312 312 312 312 313 312 309 307 308 308 308 308 307 308 311 311 310 310 308 307 309 308 306 308 308 307 307 309 309 310 311
312 311 311 311 311 311 312 310 309 310 309 308 309 310 310 311 311 311 310 309 310 310 310 311 312 313 312 311 312 312 313 314 313 313 313 313 313 313 313 312 312 312 312 313 313 312 311 311 312 312 310 310 311 312 314 315 313 310 310 310 310 313 314 309 305 304 305 308 310 309 310 311 309 309 311 309 309 311 310 308 309 310 310 310 312 311 312 312
312 311 312 312 311 311 312 312 311 310 309 309 309 310 313 312 311 312 310 309 310 310 311 311 312 313 312 312 312 312 313 314 313 313 314 313 313 313 313 313 312 311 312 314 315 315 314 312 313 314 313 310 309 311 313 313 313 311 312 312 309 310 312 310 308 307 306 309 310 308 310 309 308 309 310 310 311 312 311 309 308 309 310 311 312 312 313 313
311 312 312 312 311 311 312 312 312 310 309 311 310 313 317 313 310 313 311 309 310 310 311 312 312 313 312 312 312 312 313 314 313 313 314 313 313 314 312 312 313 311 310 312 313 316 317 313 312 313 314 311 311 313 312 311 312 311 312 312 310 311 311 308 309 310 309 310 311 308 306 307 309 309 309 310 311 312 311 310 309 308 310 312 312 312 312 311
311 312 312 312 311 311 312 313 312 310 309 310 309 312 318 317 314 314 312 309 310 311 311 313 313 312 312 312 313 312 312 313 312 313 314 313 313 313 312 312 314 311 308 311 312 313 316 314 312 312 313 312 312 313 313 312 310 308 308 309 310 312 311 310 309 310 310 310 310 309 306 307 311 310 310 310 311 311 311 311 310 309 311 312 312 312 313 312
311 312 312 312 311 311 312 312 311 311 310 310 310 312 316 317 315 312 311 311 312 310 312 315 313 311 312 313 313 312 313 313 312 312 313 312 311 311 310 311 314 311 309 312 314 314 313 312 313 312 311 312 313 313 315 315 311 308 308 309 310 310 309 310 309 307 309 309 309 309 308 308 310 310 310 310 310 310 311 313 312 310 311 312 312 313 314 312
310 313 312 310 312 312 312 313 313 312 311 310 312 316 315 314 313 312 310 311 313 311 311 314 314 312 313 313 311 312 313 312 312 312 312 311 310 311 311 310 312 310 309 312 313 314 312 311 314 314 312 313 314 312 312 314 315 312 309 310 312 311 310 311 311 308 307 308 307 308 308 309 312 310 309 309 308 307 309 312 314 311 310 312 313 314 313 312
311 313 311 309 312 312 312 314 314 314 312 309 312 315 313 313 313 310 309 311 315 315 314 316 316 315 314 312 312 313 313 312 313 312 313 312 311 313 312 311 310 309 309 311 312 315 315 314 315 314 314 314 313 310 307 310 314 312 310 312 312 312 312 312 313 310 306 305 305 306 307 311 313 309 306 306 305 305 304 307 310 310 310 312 313 312 311 309
310 310 308 308 312 312 313 315 314 313 313 310 311 313 312 316 317 313 310 312 315 315 315 318 316 312 314 315 314 314 313 313 313 313 313 313 312 314 314 311 311 310 310 311 312 313 315 316 316 313 313 313 311 310 309 310 313 311 311 313 311 313 315 312 312 311 309 307 307 308 308 311 314 310 306 305 305 306 305 304 307 310 311 311 311 309 308 307
308 308 307 308 310 311 313 314 313 313 312 310 313 313 311 314 315 312 310 313 315 316 317 319 313 309 316 318 314 313 313 313 314 313 314 314 312 313 314 312 311 311 311 312 312 312 312 315 316 313 313 314 313 312 312 312 312 311 313 313 312 314 314 310 308 309 310 310 310 310 310 311 313 312 309 308 307 309 308 304 305 310 311 310 309 308 307 306
307 307 307 306 307 310 312 312 312 313 311 310 313 314 312 312 312 312 312 313 316 317 317 317 313 313 319 318 313 314 313 315 317 314 314 314 312 313 315 313 311 310 314 318 316 312 313 316 315 314 315 315 315 315 315 315 313 312 315 315 313 313 312 310 310 310 310 311 310 310 311 310 310 309 310 310 308 309 308 305 304 308 310 310 309 308 306 306
307 308 308 307 306 309 309 308 310 313 311 310 312 314 314 314 313 313 314 313 314 316 317 316 315 318 319 315 313 314 313 316 319 315 313 314 312 313 313 312 312 313 317 319 316 313 316 317 313 313 314 314 314 315 317 318 316 315 317 316 314 312 312 313 313 312 312 311 309 311 313 312 310 309 309 310 309 309 309 306 305 308 310 310 309 308 306 306
305 306 307 308 309 309 308 308 310 312 311 310 311 312 314 315 313 312 313 313 313 315 317 316 317 317 315 313 314 315 313 314 316 315 314 314 314 312 310 310 311 313 316 317 314 315 317 315 313 314 314 314 316 318 319 319 317 316 317 316 314 313 312 313 314 313 314 312 310 312 314 313 311 309 311 313 312 311 309 306 306 309 310 310 308 307 306 305
302 303 303 305 307 309 309 310 310 311 311 310 311 313 313 314 314 314 313 312 312 315 317 317 318 317 314 313 313 315 315 313 313 315 315 315 315 313 311 311 311 311 314 312 311 315 315 312 314 315 313 315 317 318 318 318 316 316 318 317 315 313 312 313 314 315 315 313 312 314 315 314 312 310 312 313 312 312 310 308 309 310 310 309 308 308 307 306
300 301 300 301 304 306 308 309 309 311 311 311 312 312 313 314 314 315 314 314 315 316 316 317 319 317 315 314 312 314 315 313 313 315 314 314 315 314 313 313 312 312 314 312 312 316 314 313 316 314 312 314 315 315 317 317 316 316 318 317 315 313 312 313 313 314 315 314 313 316 317 315 312 311 312 313 312 311 311 309 310 311 310 309 308 309 308 306
300 301 301 302 303 303 305 307 310 312 311 311 311 311 312 313 313 314 315 315 317 317 314 315 318 317 315 314 314 315 314 313 313 315 313 314 315 315 314 314 313 313 313 311 311 312 312 314 318 315 312 313 315 316 315 315 314 315 317 316 314 313 313 312 313 314 315 314 314 316 317 315 312 311 312 313 311 309 309 309 308 309 309 308 307 309 308 306
299 299 300 303 304 303 304 306 309 312 311 310 311 311 311 312 312 314 314 313 316 317 315 315 317 317 315 314 316 317 315 315 317 315 313 313 314 314 316 315 314 314 312 312 312 311 310 314 315 313 311 314 316 316 313 312 312 312 315 315 313 313 313 313 313 314 314 314 314 315 315 313 311 311 312 312 310 309 309 309 308 309 310 308 307 308 307 306
298 298 299 303 304 303 304 305 307 311 311 310 310 311 311 312 311 313 313 313 315 315 314 316 316 317 317 315 315 318 317 316 317 314 312 315 316 316 317 316 314 313 312 312 313 312 312 313 313 312 311 314 314 312 311 312 311 311 313 314 313 313 313 313 313 314 314 314 314 314 314 312 311 311 310 311 312 311 310 310 309 309 309 308 307 307 307 305
Wind_Speed
34 35 34 33 31 31 32 31 29 27 26 25 25 23 23 27 26 26 26 26 28 26 25 25 25 25 23 22 20 19 16 12 12 9 13 22 22 17 16 15 12 12 14 10 10 8 5 4 3 3 5 4 1 0 2 1 0 2 3 4 4 3 2 4 6 3 1 3 6 7 8 7 6 6 3 3 3 1 2 3 2 1 2 1 2 1 5 11
35 35 35 34 32 31 31 30 30 28 26 25 25 23 23 27 26 25 24 25 26 21 22 27 27 25 23 21 19 18 13 11 7 8 25 31 19 16 17 17 14 12 13 12 13 10 7 4 4 4 2 3 0 0 2 0 1 1 1 3 4 3 2 2 4 4 1 3 6 6 5 4 4 6 5 4 4 2 4 5 4 5 5 5 2 1 8 12
35 35 35 35 32 31 31 30 30 29 27 26 25 24 24 25 25 25 24 24 23 19 23 28 27 24 21 20 17 15 11 6 3 12 30 31 22 21 17 17 16 13 14 12 13 12 8 7 9 6 1 2 1 1 3 1 1 0 2 4 4 4 2 1 2 3 1 3 4 6 4 3 2 4 5 4 2 3 7 6 5 8 9 8 6 6 11 12
35 35 35 34 32 31 31 30 30 29 28 27 25 24 24 24 24 25 25 23 22 21 24 25 24 23 20 19 16 15 11 3 5 13 20 21 24 25 18 16 15 14 15 11 11 12 8 7 9 4 2 3 0 2 3 1 1 2 2 3 5 5 3 3 3 2 2 1 2 6 5 4 3 2 4 5 4 4 7 7 7 9 7 9 8 9 14 15
36 36 35 33 32 31 31 30 29 29 29 27 26 24 24 25 24 24 24 23 23 21 22 22 22 21 20 19 18 17 12 2 5 9 12 16 21 23 21 18 14 15 16 12 10 10 7 7 7 3 2 3 2 3 3 1 1 3 1 2 4 4 3 4 2 3 3 2 3 7 6 5 5 2 4 6 6 3 1 1 4 5 1 6 9 11 15 17
37 37 36 34 32 31 31 31 30 30 29 27 26 25 25 26 25 24 22 21 22 21 20 21 21 21 20 20 21 18 10 3 1 2 8 14 18 20 22 19 15 15 16 12 10 10 7 6 7 5 3 3 4 4 2 2 2 3 2 1 2 1 1 4 2 3 3 5 7 7 4 4 6 4 1 6 9 1 5 4 3 3 2 5 10 13 15 17
38 37 37 35 33 31 31 31 30 29 28 27 27 26 27 26 25 24 21 20 20 20 20 21 22 22 21 22 19 12 7 5 1 4 4 11 19 21 21 19 16 16 16 13 11 9 6 8 9 6 4 3 4 3 2 3 2 2 4 3 2 2 2 2 2 3 3 5 6 3 3 4 6 4 2 6 10 3 5 3 3 2 2 5 9 12 14 17
38 37 37 35 34 32 32 31 30 28 26 27 27 28 28 26 25 23 20 20 18 19 19 22 23 22 24 22 14 5 6 5 1 4 3 8 17 20 20 18 17 16 16 16 14 10 7 9 9 4 4 4 3 3 2 4 2 3 3 5 3 2 3 2 2 3 2 2 3 4 5 2 1 1 1 8 8 3 3 2 2 3 5 5 7 11 13 15
39 38 37 35 34 33 33 32 30 29 27 27 28 28 27 25 24 21 19 20 18 19 20 23 23 23 24 18 8 4 6 8 5 3 3 6 14 18 19 16 18 18 15 16 16 14 9 7 7 4 4 2 3 5 3 5 3 1 3 5 5 3 3 2 3 3 2 2 3 6 5 2 1 1 5 7 1 2 0 1 3 4 4 5 7 9 11 13
40 38 37 36 35 33 32 31 30 29 28 27 27 26 25 24 23 20 20 19 18 19 21 23 24 25 22 13 8 5 5 8 11 7 2 7 13 17 18 16 19 19 15 13 14 15 10 6 6 3 1 2 3 3 2 3 1 4 7 7 6 4 2 1 3 3 2 2 1 4 5 2 2 1 5 2 3 2 1 3 4 4 6 6 6 7 10 11
40 38 38 37 36 34 31 31 30 29 29 27 24 23 22 22 22 21 20 19 17 19 22 24 25 25 19 12 9 6 3 6 10 8 5 8 13 16 16 14 18 20 16 11 11 15 10 6 9 4 0 4 5 2 0 1 2 7 10 9 6 4 5 2 4 3 1 2 2 2 5 2 3 3 4 3 3 2 1 3 4 5 5 5 6 6 7 9
41 39 39 37 36 34 31 31 31 30 28 25 22 22 22 22 22 20 19 18 17 19 23 24 26 23 14 8 7 4 2 4 7 8 9 11 12 14 13 11 17 18 15 10 11 16 10 9 14 5 1 6 7 3 2 2 3 6 5 6 4 3 4 2 1 1 2 2 1 1 3 3 6 8 3 4 1 2 0 3 4 5 5 4 5 5 6 8
41 40 39 37 35 33 31 31 31 30 27 24 23 23 23 21 20 19 18 17 16 20 23 25 26 20 11 5 5 6 5 4 8 10 12 13 12 13 10 10 15 15 14 10 11 16 11 11 13 4 1 4 4 2 5 4 1 3 1 2 4 4 3 2 2 1 1 2 2 3 4 5 8 8 2 4 2 1 3 4 4 4 4 4 5 5 6 8
42 41 39 37 35 34 33 32 31 29 27 24 23 23 21 19 19 18 17 16 16 20 22 25 24 15 8 3 3 10 9 6 9 11 13 13 12 12 9 10 13 11 11 9 9 13 12 11 10 6 2 1 3 3 5 5 1 4 3 1 2 5 3 3 2 2 3 2 2 4 6 4 4 4 2 3 1 2 5 5 4 3 3 4 4 5 7 8
43 41 39 37 37 36 35 33 29 27 26 25 23 22 20 18 17 15 15 15 16 20 22 24 20 9 4 2 2 10 11 7 10 12 13 14 13 11 8 11 10 7 9 7 8 12 12 12 9 5 3 1 5 6 5 4 1 2 4 4 2 3 2 2 2 2 1 1 1 4 6 4 2 2 3 2 1 2 6 5 4 4 4 4 4 6 6 7
42 41 39 38 37 36 35 33 29 27 28 26 22 21 20 18 16 14 15 14 16 21 21 19 16 7 3 3 2 9 10 7 11 13 13 15 12 10 12 11 7 6 8 8 11 13 11 8 3 1 3 3 6 6 5 4 3 1 3 4 4 4 3 2 2 2 2 1 3 4 3 2 1 1 3 1 1 1 4 5 5 5 5 5 4 5 6 6
42 40 39 39 36 36 36 32 31 29 28 26 23 23 20 16 16 14 14 15 18 21 16 13 13 5 1 2 3 6 7 7 12 14 15 13 10 13 16 9 6 9 11 11 11 8 4 3 1 1 2 3 4 5 7 5 5 4 2 1 2 3 4 3 3 1 2 1 4 4 4 4 1 2 3 3 2 1 4 6 5 5 4 4 4 4 6 5
42 40 39 38 36 37 35 34 33 29 28 28 24 23 20 18 17 14 16 18 19 16 8 7 10 4 2 4 4 3 6 11 15 16 16 12 11 15 13 7 7 10 10 7 4 2 2 1 1 3 4 3 4 7 8 5 6 8 6 3 2 2 3 3 2 2 1 2 5 4 5 10 7 6 6 4 4 4 7 6 5 6 5 5 4 5 6 6
42 41 39 38 38 38 35 35 33 30 31 28 25 25 22 18 14 11 14 14 12 7 3 7 8 2 2 5 3 3 9 15 15 13 13 12 12 12 9 9 8 7 8 5 2 1 1 2 2 5 6 6 8 10 7 2 5 9 7 4 5 4 3 1 2 1 1 4 7 8 7 10 10 10 9 4 5 4 8 6 6 6 6 6 6 6 6 7
41 41 40 38 39 38 36 36 33 33 33 31 33 27 16 14 10 7 7 5 3 0 1 9 7 1 3 1 5 11 13 12 7 7 13 14 13 11 6 5 5 3 5 5 4 2 1 4 6 7 8 10 10 6 1 3 3 6 5 3 3 4 3 1 1 2 1 4 6 6 7 9 11 11 11 6 3 5 9 8 8 7 7 6 6 7 7 8
41 41 40 39 39 38 37 35 33 33 32 34 34 17 7 10 7 9 10 3 1 1 1 7 6 2 2 2 8 13 8 5 4 5 14 14 13 11 2 1 6 5 2 1 3 3 2 7 8 5 4 6 6 4 5 5 4 5 5 5 3 2 2 1 0 2 1 3 3 1 5 10 12 12 11 7 6 9 10 9 10 9 8 7 7 8 7 5
42 41 40 40 39 38 36 33 32 33 32 33 23 4 1 4 7 17 15 5 3 0 2 6 6 3 2 4 8 5 2 5 5 3 9 11 8 6 2 3 8 6 1 2 4 4 5 8 5 4 5 7 6 3 5 5 4 4 3 4 3 2 3 2 1 2 1 2 1 1 4 9 10 11 11 9 9 9 6 6 7 6 7 7 7 7 5 5
41 41 40 39 38 37 34 30 31 33 32 27 15 4 4 7 18 24 11 5 5 1 1 4 5 4 3 4 8 4 1 5 5 4 7 9 4 2 5 6 6 5 4 7 7 6 7 4 3 6 7 9 6 2 5 5 3 3 2 4 3 2 2 2 4 3 0 1 1 1 4 8 8 8 10 8 6 6 4 5 6 6 9 10 7 5 5 7
41 41 39 38 38 35 31 29 30 31 29 21 14 9 10 17 27 21 5 5 5 1 1 1 2 4 4 4 7 5 3 2 3 6 8 8 5 2 5 5 5 6 6 8 8 7 3 2 2 6 7 8 7 4 6 6 4 1 3 4 2 4 4 1 4 5 1 1 1 2 5 6 4 5 7 3 1 3 3 4 6 6 7 8 7 6 7 8
41 40 39 38 34 32 32 29 27 29 24 15 13 11 15 22 23 13 4 4 4 2 0 0 1 4 4 3 5 4 4 2 1 3 6 7 6 4 3 2 2 7 7 6 6 6 1 2 2 7 5 5 6 6 6 6 5 2 5 5 2 6 6 3 6 5 3 3 0 2 5 4 1 3 5 0 1 3 1 2 5 3 3 4 5 6 5 6
42 40 40 36 33 35 31 20 21 27 19 12 15 14 17 22 17 9 3 2 4 4 2 4 3 6 8 3 2 4 5 3 2 2 5 6 4 4 4 2 1 3 6 5 3 2 2 1 1 5 7 6 6 6 5 5 5 3 3 3 3 5 8 8 7 4 2 2 1 1 5 3 1 3 2 1 4 5 2 2 3 2 2 2 3 4 4 4
41 40 39 34 36 38 23 12 21 24 11 11 17 18 18 20 13 6 3 2 4 5 4 3 1 7 9 2 3 5 5 5 3 3 2 2 1 1 3 6 2 2 3 3 2 1 4 4 2 4 6 6 6 6 6 7 6 2 0 2 6 8 8 8 7 3 0 1 1 0 2 3 5 3 1 1 4 7 4 2 1 1 2 2 3 4 4 4
41 41 38 34 38 31 13 14 25 20 9 12 19 19 19 17 8 3 3 3 3 3 4 2 1 6 5 1 1 1 1 4 6 3 1 2 1 1 2 6 5 5 2 3 5 1 3 5 6 7 6 6 5 2 3 7 5 0 1 1 4 5 5 5 4 2 1 1 3 2 1 4 5 2 1 1 4 7 4 3 1 2 2 3 3 4 4 3
42 41 36 36 37 23 10 17 24 19 14 18 21 21 20 14 5 2 2 3 3 3 2 3 4 5 3 2 2 1 1 2 2 3 1 2 2 2 2 3 5 8 3 1 3 1 1 2 3 5 5 4 3 3 0 3 2 3 4 5 5 4 5 3 2 3 2 3 5 2 1 4 5 3 2 1 2 6 3 3 2 1 1 2 3 4 4 3
42 40 36 38 34 19 12 16 22 23 17 17 22 22 18 9 4 5 3 3 4 3 2 2 4 5 8 8 2 1 2 2 2 4 2 1 3 4 1 1 4 7 3 4 4 1 1 0 1 1 1 2 4 5 3 1 5 7 6 6 7 4 3 2 2 1 2 4 2 2 2 3 4 3 3 2 2 2 3 5 4 3 2 1 2 3 3 3
42 39 36 38 31 22 14 10 23 25 16 18 23 19 11 3 1 6 5 2 4 3 2 3 3 7 15 14 5 1 2 3 1 6 6 3 3 3 2 2 3 3 2 2 3 1 1 2 1 1 1 2 5 6 5 2 5 5 3 5 6 3 1 2 1 0 5 4 1 2 3 3 5 3 1 0 1 1 3 6 8 6 5 3 2 2 3 3
43 38 35 34 30 27 13 8 26 26 17 22 21 9 5 4 3 6 4 3 4 5 5 5 4 8 14 11 5 3 3 3 2 6 8 5 4 5 3 4 5 3 3 5 3 1 2 2 1 1 0 3 4 6 5 1 2 2 4 7 5 3 2 3 2 2 5 2 2 2 2 3 7 6 4 5 3 3 4 4 5 5 4 3 2 3 2 2
42 37 34 28 28 27 12 12 29 25 19 23 14 2 2 6 7 5 4 3 2 2 4 4 3 8 13 10 6 4 2 2 3 3 3 3 4 4 1 1 4 2 3 5 4 3 2 1 1 2 2 3 4 5 5 4 5 5 7 7 5 5 4 5 3 1 3 0 2 1 1 3 5 5 7 9 4 2 3 2 1 1 1 2 3 3 3 1
42 37 32 24 23 23 12 15 28 25 21 18 7 3 5 7 6 5 6 4 1 2 3 6 8 10 10 6 5 6 2 1 3 3 3 4 5 5 2 3 3 1 3 4 4 5 5 3 3 4 2 2 4 2 1 4 5 3 1 1 4 4 4 4 3 2 2 2 2 1 2 4 3 0 2 4 1 1 2 2 3 4 2 2 4 3 1 0
41 36 29 21 21 19 11 15 25 25 21 10 4 7 9 10 6 5 8 5 2 3 3 5 10 11 7 2 2 4 1 1 3 2 4 6 7 8 7 7 5 2 4 5 3 3 3 2 1 1 1 2 3 2 2 4 4 1 1 0 3 2 2 2 1 0 1 1 2 3 3 4 2 3 2 1 1 2 2 1 3 5 1 1 2 1 2 2
39 30 23 18 19 19 13 15 22 23 16 6 5 8 8 7 4 4 7 6 5 9 10 7 7 8 7 2 2 6 1 2 5 3 3 4 5 8 9 7 7 7 6 5 3 2 2 1 2 2 0 1 0 2 1 1 2 2 2 3 2 1 4 4 1 1 1 3 2 2 4 3 3 5 2 3 2 3 3 3 4 4 1 3 2 3 4 4
33 24 16 13 17 21 15 13 20 19 8 3 8 9 4 1 1 2 6 7 8 13 14 9 5 5 8 5 5 9 4 3 4 3 3 3 3 7 9 5 6 11 8 2 1 3 3 2 2 1 1 2 2 1 2 2 1 2 3 5 3 1 1 2 1 1 0 4 2 2 5 4 2 3 1 3 3 4 5 5 3 2 2 3 4 4 6 5
23 17 11 10 17 22 16 14 17 13 3 2 10 10 2 1 1 3 5 7 9 10 9 8 4 3 7 8 7 9 8 6 5 4 4 4 4 7 11 5 4 10 7 1 1 2 2 2 1 1 0 1 2 1 2 1 1 0 1 3 3 2 2 2 2 2 2 4 2 2 3 4 5 4 0 3 7 7 7 5 4 5 5 5 5 6 6 6
15 9 5 10 17 21 18 16 13 7 2 5 11 9 2 2 1 1 3 6 7 7 7 6 2 1 5 7 7 9 9 7 8 6 4 5 4 5 11 9 4 8 7 3 2 2 1 2 1 1 1 0 1 2 4 4 2 1 1 2 0 1 2 2 2 2 3 3 2 2 1 3 6 5 4 7 8 9 9 6 5 7 7 7 7 7 7 6
9 4 3 12 19 21 20 15 9 5 5 6 7 5 2 2 2 1 2 2 3 3 4 4 3 4 5 3 4 6 7 6 9 7 4 6 5 2 8 10 5 5 4 3 1 2 2 1 2 2 1 2 3 2 4 5 4 3 4 5 3 1 1 1 1 1 1 3 3 3 3 3 3 4 8 8 4 5 8 7 6 6 6 7 8 7 7 6
4 2 4 13 21 23 20 12 6 6 5 3 2 2 1 2 4 3 1 0 1 1 1 3 4 5 5 4 4 5 4 4 7 6 2 6 7 4 6 10 9 8 5 3 2 3 1 1 3 4 3 4 2 1 1 2 0 2 3 5 6 4 3 3 4 1 0 2 2 2 4 4 1 2 6 4 2 3 5 4 5 6 7 8 7 6 6 5
3 2 4 14 26 25 16 8 6 4 2 2 2 2 2 3 5 6 3 1 1 1 2 2 3 3 4 5 4 6 7 5 6 6 4 7 9 6 4 6 10 12 10 5 3 2 1 2 4 3 2 2 2 1 0 2 1 0 1 1 2 3 4 5 6 4 3 1 1 1 3 4 1 1 2 1 1 1 1 1 2 5 7 7 7 6 4 4
3 3 4 13 27 23 11 7 8 5 2 1 1 2 2 2 3 5 4 2 1 1 2 2 2 2 2 2 3 7 8 5 5 8 6 6 6 3 2 7 10 11 9 5 3 2 2 3 3 2 1 1 1 0 1 0 1 2 3 2 3 3 2 2 2 3 4 4 3 2 4 4 1 2 1 1 1 2 2 3 4 6 6 6 7 7 5 4
2 4 4 8 21 19 8 7 11 10 5 2 2 2 2 1 3 4 6 5 1 2 4 2 1 2 2 3 4 8 10 6 5 8 5 3 3 1 1 9 13 11 8 5 6 6 4 3 4 4 2 1 1 2 2 2 3 4 3 3 4 3 4 3 1 2 3 6 6 5 6 5 1 2 1 2 2 3 3 4 4 5 7 7 6 5 5 5
2 3 2 2 8 9 5 4 6 8 8 6 5 5 3 2 1 2 6 5 1 2 4 2 1 2 3 4 3 5 10 6 2 6 4 1 2 2 1 6 11 11 5 1 5 7 5 4 6 6 6 5 6 7 6 5 4 3 2 4 7 8 8 5 2 3 5 5 7 7 8 3 2 2 2 3 3 4 4 4 3 4 5 6 6 5 5 5
1 2 2 1 1 1 2 1 1 5 8 9 7 5 5 5 2 2 1 3 1 1 3 2 2 3 3 5 5 5 10 3 3 4 6 4 2 1 2 3 5 5 2 4 7 7 3 2 6 9 10 9 10 10 6 5 6 7 10 12 12 12 11 6 2 3 5 3 5 10 9 3 2 5 5 4 6 6 4 6 6 6 7 6 5 5 5 4
0 1 3 2 1 1 2 1 2 4 7 9 6 4 6 7 5 2 1 0 2 2 3 2 2 4 6 9 6 5 8 5 1 3 5 4 2 1 1 0 1 1 2 3 6 5 3 4 7 10 12 10 6 4 4 6 9 14 15 12 11 11 11 9 7 8 5 4 5 12 11 9 8 8 8 7 6 5 5 9 10 10 9 6 5 5 5 5
1 2 1 1 0 2 3 5 6 6 9 9 4 3 8 8 8 6 1 2 0 2 1 1 3 6 9 11 7 4 5 5 4 3 3 3 3 2 1 1 1 1 1 2 3 3 4 6 7 8 12 11 3 3 4 7 8 9 9 9 11 12 13 14 14 13 8 6 13 15 13 15 12 9 9 8 6 7 8 8 7 6 6 5 5 6 6 7
1 2 1 3 1 1 2 6 9 9 11 10 4 3 8 11 10 5 2 3 2 1 1 3 6 6 7 9 8 7 7 7 6 4 2 3 3 3 2 2 1 0 1 3 2 1 3 6 6 8 12 13 6 3 4 5 5 5 7 10 12 13 15 17 17 16 12 12 16 10 7 13 10 9 9 6 4 3 2 4 4 6 8 7 6 7 8 8
1 1 1 1 2 3 3 5 9 9 9 9 7 5 6 9 10 4 1 4 5 4 3 4 6 6 5 7 7 7 10 10 9 8 7 6 4 3 4 4 3 2 1 4 3 2 3 4 6 7 8 11 7 4 3 4 5 5 5 6 9 11 14 17 17 16 12 13 17 7 2 9 7 7 6 2 4 3 4 6 8 9 9 9 8 7 8 9
3 1 1 1 2 3 2 3 5 6 7 8 8 6 6 10 10 6 2 1 2 5 7 7 7 5 2 4 6 6 7 7 6 9 13 12 8 6 4 4 6 7 5 4 3 3 4 2 3 5 7 9 6 5 5 4 2 3 3 7 11 12 13 14 15 15 13 14 17 9 6 9 5 7 5 3 4 5 6 8 8 8 8 10 11 10 8 9
3 2 1 1 2 2 2 2 3 5 6 4 4 5 5 6 7 6 4 1 1 2 5 8 10 5 3 6 8 5 4 4 2 3 6 5 3 3 2 2 7 9 8 7 4 3 5 4 3 5 9 7 1 3 6 6 2 5 6 11 15 15 14 13 11 12 13 13 13 10 9 7 6 9 8 6 6 7 8 9 8 8 9 10 10 10 9 9
Wind_Direction
190 189 189 189 188 187 185 185 185 184 184 184 187 187 188 193 194 193 196 198 199 203 201 197 201 203 205 209 211 213 217 223 230 229 233 241 240 239 248 261 269 237 224 216 196 179 143 152 162 139 145 146 35 170 177 6 322 222 197 172 172 170 168 171 173 182 74 119 156 173 193 183 151 159 172 170 183 188 188 196 180 198 225 180 63 60 146 152
191 190 189 188 188 187 185 186 185 183 182 182 186 187 187 192 193 191 192 195 198 199 195 196 202 203 201 203 206 207 206 214 231 252 236 236 246 246 243 251 258 237 215 205 197 179 156 168 154 142 154 171 97 322 199 282 248 202 159 184 186 160 124 162 163 162 150 92 140 167 192 197 157 153 169 198 169 160 227 207 190 225 210 174 168 157 158 160
191 190 188 188 187 187 186 185 185 183 182 182 185 186 189 191 190 191 191 192 194 193 192 196 200 200 198 195 194 194 188 190 240 254 241 242 247 240 236 243 247 237 218 208 204 193 183 174 157 154 157 202 164 223 211 160 235 191 185 200 169 147 117 163 177 150 132 72 139 161 169 208 156 141 169 193 164 187 233 222 196 222 220 188 160 156 166 169
191 189 187 187 186 186 186 185 185 183 181 182 183 185 188 188 188 191 191 189 191 192 192 193 192 191 189 184 180 174 161 161 245 242 249 254 243 231 229 235 239 229 215 212 206 195 185 159 150 152 176 202 323 237 207 121 229 160 199 211 135 148 144 160 188 126 119 74 151 146 153 189 152 165 180 166 180 219 235 235 227 231 218 179 153 157 172 175
189 188 186 186 184 184 185 185 184 182 181 182 182 182 184 187 189 190 190 188 189 191 189 187 184 180 178 173 169 161 153 177 244 231 246 243 229 224 224 228 234 220 207 207 194 180 173 146 141 137 189 202 178 206 192 80 291 154 200 341 102 163 154 147 182 135 132 107 139 149 159 161 131 179 190 179 206 218 177 227 247 261 258 157 156 158 171 181
187 186 183 183 183 182 184 184 181 180 180 181 182 182 183 187 190 189 187 185 188 190 186 183 178 175 173 167 165 167 177 208 190 274 254 223 205 209 216 222 226 210 202 199 175 167 162 152 170 177 184 203 189 196 153 92 298 186 178 17 95 244 131 140 161 157 160 147 155 160 151 133 153 188 162 212 225 129 78 66 29 348 13 132 149 157 173 186
185 184 181 181 181 181 183 183 179 177 178 179 180 182 184 187 190 188 184 182 186 188 184 179 175 173 168 163 165 177 220 234 252 337 294 211 195 196 203 212 214 200 195 183 160 162 163 172 187 180 168 191 198 205 128 126 287 243 162 135 133 355 60 128 145 161 189 164 147 139 142 155 189 187 91 231 234 153 104 79 36 43 104 136 153 168 181 189
183 183 181 179 179 179 180 179 176 176 176 178 181 183 184 185 189 186 181 182 183 183 181 176 174 172 165 161 159 181 241 228 255 355 341 207 193 187 189 197 200 192 191 184 170 164 163 176 179 171 184 204 186 174 167 154 206 251 156 139 143 53 72 89 115 154 184 153 124 144 158 158 205 141 172 236 233 149 111 83 88 116 128 163 179 182 185 191
181 181 179 177 176 176 176 175 175 176 175 177 181 183 183 186 188 182 179 183 182 182 178 176 176 168 166 163 149 182 221 212 225 334 355 200 187 181 180 186 192 189 191 190 179 166 168 184 180 183 185 195 178 166 188 195 201 189 126 135 138 108 101 118 119 145 176 138 163 166 143 99 86 9 251 238 228 72 79 121 136 152 164 187 191 190 189 195
179 178 176 175 174 173 173 173 175 176 174 175 177 179 181 186 186 180 179 180 181 181 177 177 174 166 169 163 153 202 213 202 224 257 299 181 178 177 175 182 189 188 186 183 176 167 177 190 168 167 127 133 178 154 181 217 185 101 112 108 110 112 113 154 131 139 166 112 241 181 131 105 131 253 248 183 50 7 208 157 152 186 199 198 191 196 196 202
177 175 173 172 172 172 171 173 177 176 173 171 170 172 177 182 181 178 177 177 178 179 177 175 170 167 172 168 173 208 194 190 216 226 217 179 177 179 178 185 188 188 182 174 184 180 182 175 148 130 1 154 145 114 185 217 104 121 128 104 83 103 108 82 123 138 207 119 297 209 127 109 128 226 237 108 55 5 171 171 168 199 211 203 196 198 201 210
175 172 170 169 170 172 172 174 178 176 171 168 168 171 174 176 176 175 173 174 176 176 175 171 170 168 165 178 203 213 187 199 198 194 191 177 177 182 181 188 189 192 185 176 195 191 186 168 154 131 297 160 139 143 157 127 108 130 144 120 108 143 116 54 102 175 282 139 276 253 162 199 191 214 198 92 0 17 339 211 184 203 209 204 204 206 209 211
172 170 169 168 169 171 170 172 175 171 166 167 171 170 170 172 173 173 171 172 173 171 172 168 168 168 165 185 214 208 211 198 181 181 180 174 176 181 185 190 188 195 198 197 199 193 191 174 160 123 24 156 132 158 127 98 109 141 176 136 137 182 164 37 1 281 243 141 283 255 231 225 203 216 143 77 315 306 256 224 195 201 203 213 211 215 219 212
170 169 168 167 168 169 168 170 168 164 165 167 167 165 165 168 170 170 168 168 168 168 169 166 165 167 174 190 197 203 204 181 181 179 174 175 168 167 178 183 183 193 202 213 205 193 189 169 149 114 71 49 112 148 124 97 321 135 145 211 160 195 177 68 17 284 192 157 294 235 237 248 187 193 110 60 326 240 250 230 204 203 204 221 214 223 228 216
168 167 167 168 168 169 169 169 164 161 166 164 161 163 163 165 165 165 165 163 163 165 162 162 167 164 173 220 214 192 184 174 183 179 176 176 163 152 163 175 179 184 186 201 192 175 169 157 143 121 96 61 139 146 125 109 73 118 164 186 183 216 182 88 54 322 221 150 276 228 233 252 215 153 103 54 105 189 244 245 240 240 227 224 219 229 234 229
167 166 167 168 169 170 168 166 163 160 161 160 159 160 159 159 158 155 157 156 156 158 155 161 174 169 163 193 174 176 179 183 183 179 178 176 171 152 143 150 145 141 146 142 141 140 139 135 126 108 108 140 166 150 132 141 156 185 229 179 169 202 184 155 121 359 329 142 220 242 258 256 203 134 114 99 147 146 248 255 253 247 239 230 222 227 235 240
166 166 166 168 169 169 167 166 164 160 157 157 156 157 155 152 150 145 148 150 148 148 148 163 172 162 109 142 153 180 181 180 175 173 176 177 178 152 136 123 112 121 119 117 126 123 100 85 108 209 121 153 180 159 162 183 177 175 245 162 180 210 185 182 151 82 337 231 214 223 258 253 188 153 171 187 215 271 266 259 257 245 238 229 222 230 232 237
165 166 166 167 167 166 165 165 164 160 157 158 155 152 147 140 140 138 138 138 135 134 134 161 164 166 219 169 170 193 162 162 164 164 173 174 165 151 137 118 128 130 120 115 124 104 45 33 205 165 150 170 177 184 190 189 180 180 188 178 168 220 226 216 155 138 189 217 220 207 240 254 249 236 230 197 185 258 268 263 269 260 252 236 227 236 230 233
164 165 165 165 165 164 162 161 163 161 159 157 148 137 128 123 123 123 135 140 138 135 145 169 171 169 175 172 162 128 137 148 153 155 162 166 159 145 122 121 131 132 140 150 159 154 119 124 177 180 176 183 184 201 208 167 183 187 182 174 153 168 219 242 92 69 204 202 217 218 231 254 256 253 257 226 163 233 266 267 267 259 257 248 234 234 227 233
163 163 164 165 165 163 162 162 163 163 162 155 144 135 126 133 131 128 154 172 164 87 141 163 172 115 77 107 138 129 127 131 133 147 156 161 154 130 95 111 122 122 160 163 148 149 197 170 190 198 185 185 184 189 136 80 162 173 160 168 167 169 181 161 100 55 300 218 216 228 247 263 264 261 263 257 199 237 252 254 256 250 250 247 239 240 230 232
163 163 164 164 164 163 163 164 164 164 162 155 151 145 150 162 153 155 159 139 114 350 3 143 133 88 72 89 147 140 125 104 79 135 156 161 159 147 131 174 155 162 172 118 120 121 203 205 201 194 159 154 149 120 96 97 126 158 174 182 193 212 161 98 128 85 32 236 209 204 256 258 258 261 261 254 247 250 241 236 243 243 243 243 242 246 242 242
163 164 164 164 163 164 164 164 165 165 162 160 164 176 206 165 127 145 147 120 145 318 31 122 107 73 75 140 173 176 104 112 104 136 161 161 174 175 163 174 172 168 121 135 140 138 200 214 182 121 98 96 90 102 120 104 121 150 176 180 191 201 139 117 161 115 62 244 210 146 258 262 255 259 259 243 241 249 245 243 252 252 250 247 244 247 253 262
163 163 163 163 163 163 163 164 164 166 167 168 181 198 168 143 134 142 139 100 133 46 65 142 133 121 102 163 199 225 107 132 145 185 182 164 169 182 150 165 167 140 156 182 177 174 195 212 123 119 138 130 115 141 131 110 134 156 160 178 184 162 169 196 170 157 46 305 291 245 268 272 256 254 253 236 238 262 282 276 263 254 253 257 263 272 271 266
162 163 163 162 162 163 162 162 163 170 174 178 193 184 148 142 145 149 122 86 123 73 100 119 112 146 146 177 198 190 126 107 154 167 181 171 146 147 161 152 138 145 182 191 185 188 177 19 98 136 156 154 143 162 167 168 185 208 205 192 161 168 204 322 124 145 168 180 295 285 269 268 245 245 247 218 196 261 273 273 253 236 244 262 278 277 255 251
161 162 162 160 161 162 159 158 165 174 176 188 204 181 145 147 153 157 118 98 135 114 100 169 128 182 182 175 187 176 130 95 80 144 172 175 146 138 151 116 168 180 176 161 176 201 142 28 162 144 147 158 148 168 195 196 189 211 222 213 203 181 166 111 133 156 191 194 116 319 262 252 129 239 241 180 347 254 207 265 263 248 242 260 270 270 253 245
161 160 160 159 159 158 154 158 172 171 173 202 197 164 150 155 158 167 130 85 165 153 155 160 158 184 175 157 164 158 146 141 4 49 142 168 154 133 143 127 310 182 156 138 162 216 104 75 181 146 149 155 163 186 195 195 194 205 214 187 165 159 139 140 165 182 219 200 79 325 258 252 300 261 223 52 312 280 248 239 273 298 308 286 280 286 282 265
160 160 158 157 159 158 154 158 166 163 169 205 183 159 158 158 157 178 133 83 192 160 137 149 230 182 165 154 180 166 162 146 104 69 91 139 152 71 158 165 153 138 143 141 179 196 112 127 153 137 143 154 177 193 182 187 195 192 198 135 141 145 145 155 169 184 311 101 128 314 291 274 273 262 116 37 282 267 242 204 277 351 352 340 325 314 307 291
160 159 157 157 161 163 161 152 158 167 181 175 167 158 157 155 152 177 149 158 182 128 139 159 93 155 150 84 167 150 132 129 131 149 36 53 115 2 176 174 157 134 134 186 193 186 100 162 175 155 157 177 186 185 164 182 193 172 26 101 126 129 130 145 153 129 48 267 215 164 43 266 258 241 93 30 272 254 220 153 110 54 34 2 358 352 341 329
160 158 156 159 162 167 172 157 161 177 178 161 160 158 153 152 149 136 164 190 158 97 120 135 130 144 141 127 112 26 64 79 104 154 102 83 91 28 155 166 125 117 84 310 175 58 32 199 194 164 175 179 131 38 22 193 158 134 145 107 87 79 76 92 125 114 106 251 227 147 85 259 258 241 185 97 264 249 208 127 114 92 54 352 10 10 6 19
160 158 157 159 163 165 157 160 174 176 165 160 160 154 149 153 161 154 183 200 148 113 83 137 166 154 152 156 143 332 127 60 56 119 106 111 68 36 78 113 102 116 77 30 68 43 327 342 328 319 193 143 108 66 22 39 117 138 150 112 93 74 57 64 38 84 191 243 223 82 6 276 267 246 203 197 234 229 156 135 145 139 120 95 48 21 17 26
159 158 159 161 165 164 147 167 186 172 155 158 155 150 150 128 163 172 178 172 131 133 152 166 167 153 165 170 156 153 115 57 145 146 139 151 94 93 151 154 104 107 123 100 77 29 75 105 168 68 48 142 123 85 49 64 129 138 161 134 115 85 85 122 62 185 225 230 114 36 341 254 240 238 175 242 271 236 183 152 145 140 122 96 49 21 19 12
160 158 161 165 169 168 158 175 179 166 152 156 151 154 160 120 193 194 162 144 153 170 180 172 178 171 172 167 128 134 125 88 189 164 145 152 154 154 174 183 163 148 180 176 150 104 105 113 105 64 280 225 157 108 82 78 199 182 163 156 150 139 164 197 191 206 234 238 59 1 311 238 244 261 279 272 250 233 232 174 139 139 126 91 32 8 9 5
160 159 162 167 170 171 168 163 169 165 155 156 152 141 141 158 198 187 149 174 174 141 137 126 139 156 158 158 147 150 117 108 185 178 137 133 159 169 314 214 175 166 173 163 146 150 161 169 158 144 184 233 201 148 141 177 198 187 168 167 172 155 172 202 186 230 260 253 53 318 291 255 258 269 261 252 230 176 237 247 226 245 286 4 344 332 333 347
160 160 162 168 171 172 168 161 169 167 156 157 161 126 144 186 193 140 150 187 39 74 107 115 124 137 152 157 159 163 122 87 169 164 147 140 157 182 203 202 210 31 105 143 162 175 188 200 178 165 157 179 202 220 161 146 161 185 165 160 186 175 190 203 182 213 227 105 93 196 232 228 220 79 246 249 316 53 250 274 287 272 264 311 303 292 287 137
159 160 162 164 168 171 164 162 170 167 157 157 164 155 176 196 187 157 164 160 111 116 88 114 133 142 159 103 118 192 191 120 171 156 155 165 173 183 188 193 202 172 140 163 184 174 195 241 73 65 285 171 181 290 355 99 125 180 11 69 214 197 138 121 72 136 103 75 159 188 243 249 258 286 257 210 287 256 231 240 264 262 203 153 265 199 141 137
157 158 159 161 168 170 160 160 167 167 165 162 159 179 205 201 172 168 158 132 140 139 116 120 136 147 168 147 179 208 229 116 169 173 175 188 189 186 189 191 189 193 184 166 161 162 180 244 18 29 348 94 313 304 337 98 143 150 164 182 202 46 103 115 109 63 26 259 200 166 249 264 280 276 246 128 203 204 179 195 229 250 179 140 187 159 141 142
155 155 153 158 171 171 161 157 161 164 174 184 180 191 209 172 105 127 136 119 135 142 134 144 166 170 171 164 185 192 168 128 172 195 178 175 201 189 190 204 189 194 202 167 174 212 169 128 14 359 122 58 322 276 55 14 101 142 178 171 142 55 70 121 169 109 161 247 218 165 240 252 230 248 85 116 186 192 185 191 193 216 184 153 166 160 147 140
150 145 141 158 175 175 163 150 153 156 154 195 199 204 180 95 140 126 135 129 137 154 157 158 171 191 177 172 174 175 168 162 174 189 170 175 214 182 176 196 194 190 200 84 153 215 157 138 52 356 180 56 341 228 133 77 6 330 196 146 127 196 201 175 186 175 194 231 243 204 240 263 221 215 131 163 192 200 198 189 183 190 179 163 163 159 148 138
142 133 138 164 176 178 165 147 142 144 162 195 204 208 156 93 124 136 160 138 133 161 171 163 160 190 183 175 152 158 178 178 164 173 184 188 207 179 177 188 187 185 183 138 169 180 125 190 159 73 297 351 353 233 191 170 117 43 131 137 356 278 210 186 165 179 211 213 236 227 208 237 218 208 215 206 198 198 193 183 190 189 176 168 163 160 156 149
141 133 150 162 173 177 161 139 131 155 195 206 203 194 129 100 121 305 277 145 128 173 170 163 162 153 161 158 128 154 184 177 165 182 205 185 187 208 193 188 164 159 149 98 151 156 106 228 167 107 322 205 187 220 211 187 158 151 166 170 182 158 52 248 166 93 241 207 211 239 240 233 207 195 212 212 193 190 190 185 188 183 174 169 160 157 153 149
152 146 145 160 171 171 153 137 158 184 194 204 166 152 152 139 141 153 279 18 79 338 108 136 147 144 145 151 153 155 157 162 176 190 209 192 200 221 204 188 161 143 130 109 168 170 157 183 143 138 179 191 199 306 293 274 215 162 187 185 183 158 136 191 202 153 326 244 207 230 264 256 172 181 216 203 135 191 205 200 181 168 173 167 151 149 144 141
168 153 138 161 169 166 153 155 183 182 195 188 126 107 129 129 137 154 173 158 80 38 48 100 117 132 149 156 156 152 153 164 182 192 210 211 211 216 206 181 157 154 159 161 177 170 102 106 117 137 187 211 296 340 215 271 299 288 268 224 182 173 174 197 208 184 149 144 93 81 281 274 115 133 225 167 156 232 267 253 173 155 170 163 144 142 136 124
159 128 101 155 168 168 157 169 187 189 216 211 92 55 71 111 128 150 176 187 126 104 116 111 117 153 167 152 144 159 167 170 184 198 210 210 211 235 176 152 145 157 169 158 155 156 98 113 120 102 80 345 313 272 143 180 246 230 237 207 189 201 196 195 203 161 150 165 165 173 249 260 109 101 217 175 250 270 266 230 189 161 166 163 150 148 142 128
128 116 73 151 173 179 176 179 192 192 176 107 98 95 58 80 126 154 179 186 173 143 139 127 150 163 153 151 148 166 177 181 203 210 208 186 189 1 131 162 154 162 184 178 169 177 181 164 135 119 128 147 191 208 201 198 214 226 221 187 193 166 94 85 109 145 192 203 186 194 242 249 131 101 171 156 207 244 236 223 205 179 168 163 157 151 145 139
107 106 50 126 173 192 198 184 189 180 162 150 155 152 131 99 73 166 173 162 118 144 138 126 154 117 116 142 124 161 186 186 191 201 197 179 177 29 344 193 175 174 184 137 148 165 184 181 158 162 171 173 193 204 202 193 188 213 206 179 192 180 160 164 162 174 216 201 174 204 236 238 110 143 189 156 179 218 210 189 199 198 176 168 165 158 153 153
119 117 129 110 63 218 189 71 106 168 171 168 164 166 162 148 108 350 144 151 160 121 94 91 138 102 117 159 144 168 197 200 37 176 186 178 164 55 334 236 201 186 121 104 145 150 151 196 190 196 199 198 206 208 192 149 148 191 207 199 196 193 186 179 129 184 205 160 173 221 235 238 173 187 206 196 188 203 192 164 175 191 187 179 168 155 148 148
102 106 140 140 110 176 153 117 156 166 175 178 174 171 163 146 137 133 11 221 186 149 75 62 154 164 167 169 160 174 191 186 71 173 178 167 142 28 346 180 211 266 66 140 169 136 119 204 203 209 222 222 209 196 173 161 182 206 209 196 187 186 184 188 205 210 175 116 223 233 227 236 224 191 202 212 186 187 192 181 183 185 180 171 155 150 148 149
73 85 62 350 102 179 181 174 164 151 165 179 182 157 162 157 158 166 138 45 139 193 140 108 210 204 178 164 158 152 161 174 197 186 150 144 144 117 72 71 163 233 74 148 179 124 150 206 201 199 226 233 189 116 179 186 197 213 204 181 177 176 181 194 213 216 174 170 236 234 215 225 222 182 201 217 191 193 198 183 172 157 156 158 156 165 167 163
79 91 6 334 22 92 119 143 147 150 162 173 180 175 178 176 169 164 114 111 144 233 213 181 195 200 182 172 170 164 168 180 194 195 153 132 145 139 127 130 163 211 115 144 175 174 174 200 192 186 221 233 205 144 195 189 181 202 197 186 177 176 189 200 213 219 200 209 239 238 210 229 219 177 202 217 177 186 159 120 135 153 167 176 175 179 178 170
89 102 75 22 64 68 66 123 147 155 163 176 188 186 185 186 176 157 123 161 161 168 195 192 173 159 171 191 190 189 194 189 182 182 169 154 169 187 180 181 158 121 178 171 167 216 203 193 174 167 216 233 204 151 183 188 188 200 190 181 176 181 199 209 218 221 212 226 241 240 256 256 223 171 197 181 100 115 131 155 181 181 177 179 182 188 180 169
84 50 58 104 86 84 90 109 137 154 166 187 195 181 184 197 182 148 141 233 165 166 176 167 147 124 121 200 210 216 206 191 182 183 175 170 180 189 186 189 160 149 175 189 164 172 190 186 134 150 210 228 200 164 170 147 145 215 190 183 186 189 200 208 216 216 206 221 234 233 257 257 198 150 184 175 137 165 178 184 194 192 184 183 188 190 178 170
91 32 10 83 79 89 121 106 125 163 172 184 187 169 179 192 168 153 173 213 54 181 176 156 148 132 135 197 215 222 176 149 122 152 163 159 143 133 123 161 160 158 168 176 168 167 176 173 143 171 204 221 194 153 153 123 125 233 217 196 191 197 206 208 216 219 211 215 218 215 231 230 144 147 186 198 196 202 200 199 197 192 192 191 191 184 171 171